This is the latest recevied weather packets stored in our database for station/object DG3OBU-6. If no packets are shown the sender has not sent any weather packets the latest 10 day(s).
| Time | Temp. | Humidity | Pressure | Rain* | Wind** | Luminosity | Snow |
|---|---|---|---|---|---|---|---|
| 1777728903 | 26.11° C | 39% | 1015.6 hPa | 0 mm | - | - | - |
| 1777728603 | 26.11° C | 38% | 1015.6 hPa | 0 mm | - | - | - |
| 1777728303 | 26.11° C | 39% | 1015.8 hPa | 0 mm | - | - | - |
| 1777728003 | 26.11° C | 38% | 1015.8 hPa | 0 mm | - | - | - |
| 1777727703 | 26.11° C | 39% | 1015.9 hPa | 0 mm | - | - | - |
| 1777727403 | 25.56° C | 39% | 1016 hPa | 0 mm | - | - | - |
| 1777727103 | 26.11° C | 36% | 1016 hPa | 0 mm | - | - | - |
| 1777726803 | 26.67° C | 37% | 1016.1 hPa | 0 mm | - | - | - |
| 1777726503 | 26.11° C | 36% | 1016.1 hPa | 0 mm | - | - | - |
| 1777726203 | 26.67° C | 38% | 1016.2 hPa | 0 mm | - | - | - |
| 1777725903 | 26.11° C | 38% | 1016.2 hPa | 0 mm | - | - | - |
| 1777725602 | 25.56° C | 38% | 1016.2 hPa | 0 mm | - | - | - |
| 1777725303 | 25.56° C | 37% | 1016.3 hPa | 0 mm | - | - | - |
| 1777725002 | 26.11° C | 37% | 1016.4 hPa | 0 mm | - | - | - |
| 1777724702 | 26.11° C | 38% | 1016.4 hPa | 0 mm | - | - | - |
| 1777724402 | 25.56° C | 39% | 1016.5 hPa | 0 mm | - | - | - |
| 1777724102 | 25.56° C | 38% | 1016.5 hPa | 0 mm | - | - | - |
| 1777723802 | 25.56° C | 38% | 1016.6 hPa | 0 mm | - | - | - |
| 1777723502 | 25.56° C | 39% | 1016.6 hPa | 0 mm | - | - | - |
| 1777723202 | 25° C | 37% | 1016.8 hPa | 0 mm | - | - | - |
| 1777722902 | 25° C | 36% | 1016.9 hPa | 0 mm | - | - | - |
| 1777722603 | 25° C | 39% | 1016.9 hPa | 0 mm | - | - | - |
| 1777722303 | 25° C | 39% | 1017 hPa | 0 mm | - | - | - |
| 1777722003 | 25° C | 38% | 1017 hPa | 0 mm | - | - | - |
| 1777721703 | 25° C | 37% | 1017.1 hPa | 0 mm | - | - | - |
* Rain latest hour (hover to see other rain measurements)
** Current wind speed in m/s (hover to see current wind gust speed)